BREEZE-M R/B, 37870

Orbit data source: Space-Track

BREEZE-M R/B, 37870 is space debris in MEO originally from a launch on Fri, 04 Nov 2011 UTC launched from the Tyuratam Missile And Space Complex (TTMTR). Debris objects in space refer to the collection of defunct objects orbiting the Earth. Examples of debris include non-operational satellites, rocket bodies, and fragments generated from explosions, collisions, or faulty payload assembly.

Loading next visibility...
Identifier
37870, 2011-064D
Orbit
MEO
Country
Flag of CISCIS
Related business
Manufacturer
Khrunichev
Mission
Spacecraft
Bus & Motor
BRIZ, Unknown motor
Mass
~1,600 kg wet, 1,600 kg dry
Launch date (UTC)
2011-11-04 (15 years ago)
Launch vehicle
Unknown
Launch site
Tyuratam Missile And Space Complex (TTMTR)
Object type
Payload
Rocket body
Debris
Shape & HBR
Cyl, 2.4 m
Radar Cross Section
15.135 m², Large (>1 m²)

Expand to show TLE details & history
Last TLE update: 2 weeks ago

TLE from 2 weeks ago
0 BREEZE-M R/B
1 37870U 11064D   26241.91528713 -.00000003  00000-0  00000+0 0  9991
2 37870  65.7666  45.4329 0261625 292.5022  56.0325  2.25566873122026
Epoch: 2026-08-29T21:58Z
TLE epoch observation values (Epoch: 2026-08-29T21:58:00.808Z)
Latitude
-8.17214°
Longitude
94.09439°
Altitude
17,835.405 km
Speed
4.086 km/s
True Right ascension
02h 46m 51s
True Declination
-8° 09' 29"
Sunlit
Object was in daylight at epoch
Visualization orbit readout
Latitude
Unknown
Longitude
Unknown
Altitude
Unknown
Speed
Unknown
Apparent Right ascension
Unknown
Apparent Declination
Unknown
Sunlit
N/A
Visualization observer readout
Local Sidereal Time
02:04:51
Azimuth
Unknown
Elevation
Unknown
Doppler factor
Unknown
Orbital elements
Apogee altitude
18,823.39 km
Perigee altitude
17,538.34 km
Semi-major axis
24,559.002 km
Eccentricity
0.02616
Inclination
65.7666°
RAAN
45.4329°
Arg. of periapsis
292.5022°
True anomaly
58.56432°
Mean anomaly
56.0325°
Eccentric anomaly
57.29384°
Mean motion
0.56393 °/min
Orbital period
638.37 mins
BSTAR
0
Loading maneuver chart data...
Computing Atmospheric mass density...
Loading historical data...
Loading historical data...
Loading historical data...
Loading historical data...
Loading historical data...
Loading historical data...
Loading historical data...

Documentation

Showing up to 5 results
|